TimeEDT,TemperatureF,Dew PointF,Humidity,Sea Level PressureIn,VisibilityMPH,Wind Direction,Wind SpeedMPH,Gust SpeedMPH,PrecipitationIn,Events,Conditions,WindDirDegrees,DateUTC
12:33 AM,68.0,66.0,93,29.76,10.0,SW,11.5,-,N/A,,Mostly Cloudy,220,2013-06-30 04:33:00
12:54 AM,68.0,66.0,93,29.75,10.0,SW,12.7,-,N/A,,Mostly Cloudy,220,2013-06-30 04:54:00
1:04 AM,68.0,66.0,93,29.76,10.0,SW,11.5,-,N/A,,Overcast,220,2013-06-30 05:04:00
1:54 AM,68.0,66.0,93,29.75,10.0,SW,10.4,-,N/A,,Mostly Cloudy,230,2013-06-30 05:54:00
2:54 AM,68.0,66.9,96,29.76,8.0,SW,10.4,-,N/A,,Overcast,220,2013-06-30 06:54:00
3:54 AM,68.0,66.9,96,29.76,7.0,SW,10.4,-,N/A,,Overcast,230,2013-06-30 07:54:00
4:54 AM,68.0,66.9,96,29.77,7.0,WSW,9.2,-,N/A,,Overcast,240,2013-06-30 08:54:00
5:54 AM,68.0,66.9,96,29.79,5.0,SSW,8.1,-,N/A,,Overcast,210,2013-06-30 09:54:00
6:28 AM,68.0,66.9,96,29.82,5.0,SW,8.1,-,N/A,,Mostly Cloudy,220,2013-06-30 10:28:00
6:54 AM,68.0,66.9,96,29.83,5.0,SW,8.1,-,N/A,,Mostly Cloudy,220,2013-06-30 10:54:00
7:12 AM,69.1,66.9,93,29.84,6.0,SW,10.4,-,N/A,,Scattered Clouds,220,2013-06-30 11:12:00
7:54 AM,71.1,66.9,87,29.84,10.0,SSW,9.2,-,N/A,,Clear,210,2013-06-30 11:54:00
8:54 AM,73.9,66.9,79,29.86,10.0,SSW,6.9,-,N/A,,Clear,210,2013-06-30 12:54:00
9:54 AM,77.0,66.0,69,29.85,10.0,SSW,8.1,-,N/A,,Clear,200,2013-06-30 13:54:00
10:54 AM,78.1,68.0,71,29.86,10.0,SSW,8.1,-,N/A,,Clear,200,2013-06-30 14:54:00
11:54 AM,80.1,66.9,64,29.87,10.0,SSW,11.5,-,N/A,,Scattered Clouds,200,2013-06-30 15:54:00
12:54 PM,82.0,66.0,58,29.86,10.0,SSW,12.7,-,N/A,,Partly Cloudy,200,2013-06-30 16:54:00
1:54 PM,81.0,66.9,62,29.86,10.0,SSW,11.5,18.4,N/A,,Partly Cloudy,200,2013-06-30 17:54:00
2:54 PM,80.1,70.0,71,29.87,10.0,South,13.8,20.7,N/A,,Scattered Clouds,190,2013-06-30 18:54:00
3:54 PM,78.1,69.1,74,29.87,10.0,SSW,13.8,21.9,N/A,,Partly Cloudy,210,2013-06-30 19:54:00
4:54 PM,75.9,68.0,76,29.89,10.0,SSW,13.8,-,N/A,,Clear,200,2013-06-30 20:54:00
5:09 PM,75.9,69.1,79,29.90,10.0,SSW,13.8,20.7,N/A,,Mostly Cloudy,200,2013-06-30 21:09:00
5:54 PM,75.9,69.1,79,29.90,10.0,SSW,12.7,-,N/A,,Mostly Cloudy,200,2013-06-30 21:54:00
6:54 PM,75.0,68.0,79,29.92,10.0,SSW,10.4,-,N/A,,Mostly Cloudy,210,2013-06-30 22:54:00
7:26 PM,73.9,68.0,82,29.93,10.0,SW,10.4,-,N/A,,Partly Cloudy,230,2013-06-30 23:26:00
7:39 PM,73.9,68.0,82,29.94,10.0,SW,12.7,-,N/A,,Mostly Cloudy,220,2013-06-30 23:39:00
7:54 PM,73.9,68.0,82,29.92,10.0,SSW,6.9,-,N/A,,Mostly Cloudy,210,2013-06-30 23:54:00
8:18 PM,72.0,69.1,91,29.94,10.0,South,9.2,-,N/A,,Overcast,170,2013-07-01 00:18:00
8:25 PM,72.0,69.1,91,29.94,10.0,SSW,8.1,-,N/A,,Overcast,200,2013-07-01 00:25:00
8:54 PM,71.1,68.0,90,29.93,10.0,South,9.2,-,N/A,,Overcast,190,2013-07-01 00:54:00
9:54 PM,71.1,68.0,90,29.94,10.0,SSW,6.9,-,N/A,,Overcast,210,2013-07-01 01:54:00
10:54 PM,70.0,68.0,93,29.95,10.0,SSW,8.1,-,N/A,,Overcast,200,2013-07-01 02:54:00
11:54 PM,70.0,68.0,93,29.96,10.0,SSW,9.2,-,N/A,,Overcast,200,2013-07-01 03:54:00